This is the latest recevied weather packets stored in our database for station/object SQ7IQO. If no packets are shown the sender has not sent any weather packets the latest 10 day(s).
| Time | Temp. | Humidity | Pressure | Rain* | Wind** | Luminosity | Snow |
|---|---|---|---|---|---|---|---|
| 1787363270 | 18.89° C | - | - | 0 mm | 0 m/s | - | - |
| 1787363210 | 18.89° C | - | - | 0 mm | 0 m/s | - | - |
| 1787363150 | 18.89° C | - | - | 0 mm | 0.89 m/s, ° | - | - |
| 1787363090 | 18.89° C | - | - | 0 mm | 0.89 m/s, ° | - | - |
| 1787363030 | 18.89° C | - | - | 0 mm | 0 m/s | - | - |
| 1787362970 | 18.89° C | - | - | 0 mm | 0 m/s | - | - |
| 1787362910 | 18.89° C | - | - | 0 mm | 0 m/s | - | - |
| 1787362850 | 18.89° C | - | - | 0 mm | 0 m/s | - | - |
| 1787362790 | 18.89° C | - | - | 21.84 mm | 0.45 m/s, ° | - | - |
| 1787362730 | 18.89° C | - | - | 21.84 mm | 0.45 m/s, ° | - | - |
| 1787362670 | 18.89° C | - | - | 21.84 mm | 0 m/s | - | - |
| 1787362610 | 18.89° C | - | - | 21.84 mm | 0 m/s | - | - |
| 1787362550 | 18.89° C | - | - | 21.84 mm | 0.45 m/s, ° | - | - |
| 1787362490 | 18.89° C | - | - | 21.84 mm | 0.45 m/s, ° | - | - |
| 1787362430 | 18.89° C | - | - | 21.84 mm | 0 m/s | - | - |
| 1787362370 | 18.89° C | - | - | 44.96 mm | 0.45 m/s, ° | - | - |
| 1787362310 | 18.89° C | - | - | 66.8 mm | 0.89 m/s, ° | - | - |
| 1787362250 | 18.89° C | - | - | 88.9 mm | 0 m/s | - | - |
| 1787362190 | 18.89° C | - | - | 108.97 mm | 0.89 m/s, ° | - | - |
| 1787362130 | 18.89° C | - | - | 108.97 mm | 0 m/s | - | - |
| 1787362070 | 18.89° C | - | - | 108.97 mm | 0 m/s | - | - |
| 1787362010 | 18.89° C | - | - | 130.81 mm | 0 m/s | - | - |
| 1787361950 | 18.89° C | - | - | 130.81 mm | 0 m/s | - | - |
| 1787361890 | 18.89° C | - | - | 130.81 mm | 0 m/s | - | - |
| 1787361830 | 18.89° C | - | - | 130.81 mm | 0 m/s | - | - |
* Rain latest hour (hover to see other rain measurements)
** Current wind speed in m/s (hover to see current wind gust speed)